This is the latest recevied weather packets stored in our database for station/object E20YUC-1. If no packets are shown the sender has not sent any weather packets the latest 10 day(s).
| Time | Temp. | Humidity | Pressure | Rain* | Wind** | Luminosity | Snow |
|---|---|---|---|---|---|---|---|
| 1787665007 | 30° C | 65% | 995.5 hPa | 0 mm | 3.13 m/s, 0° | - | - |
| 1787664407 | 30° C | 65% | 995.5 hPa | 0 mm | 4.92 m/s, 0° | - | - |
| 1787664109 | 30° C | 65% | 995.2 hPa | 0 mm | 1.79 m/s, 0° | - | - |
| 1787663807 | 30.56° C | 65% | 995.3 hPa | 0 mm | 1.34 m/s, 0° | - | - |
| 1787663573 | 30.56° C | 65% | 995.2 hPa | 0 mm | 3.13 m/s, 0° | - | - |
| 1787663454 | 30.56° C | 65% | 995.2 hPa | 0 mm | 51.41 m/s, 0° | - | - |
| 1787663350 | 30.56° C | 65% | 995.1 hPa | 0 mm | 4.02 m/s, 0° | - | - |
| 1787663313 | 30.56° C | 65% | 995.2 hPa | 0 mm | 2.24 m/s, 0° | - | - |
| 1787663144 | 30.56° C | 64% | 995.1 hPa | 0 mm | 1.34 m/s, 0° | - | - |
| 1787662544 | 30.56° C | 64% | 995.1 hPa | 0 mm | 1.79 m/s, 0° | - | - |
| 1787662246 | 30.56° C | 64% | 995 hPa | 0 mm | 3.13 m/s, 0° | - | - |
| 1787661944 | 31.11° C | 64% | 995 hPa | 0 mm | 2.24 m/s, 0° | - | - |
| 1787661644 | 31.11° C | 64% | 994.9 hPa | 0 mm | 1.34 m/s, 0° | - | - |
| 1787661044 | 31.11° C | 63% | 994.8 hPa | 0 mm | 0 m/s | - | - |
| 1787660746 | 31.11° C | 63% | 994.7 hPa | 0 mm | 2.24 m/s, 0° | - | - |
| 1787660444 | 31.11° C | 62% | 994.8 hPa | 0 mm | 2.68 m/s, 0° | - | - |
| 1787659844 | 31.11° C | 63% | 994.5 hPa | 0 mm | 1.79 m/s, 0° | - | - |
| 1787659544 | 31.67° C | 63% | 994.5 hPa | 0 mm | 1.79 m/s, 0° | - | - |
| 1787659245 | 31.67° C | 63% | 994.4 hPa | 0 mm | 1.79 m/s, 0° | - | - |
| 1787658943 | 31.67° C | 63% | 994.4 hPa | 0 mm | 3.13 m/s, 0° | - | - |
| 1787658643 | 31.67° C | 63% | 994.4 hPa | 0 mm | 3.13 m/s, 0° | - | - |
| 1787658043 | 32.22° C | 62% | 994.2 hPa | 0 mm | 0.89 m/s, 0° | - | - |
| 1787657745 | 32.22° C | 62% | 994.2 hPa | 0 mm | 3.58 m/s, 0° | - | - |
| 1787656843 | 32.22° C | 62% | 994 hPa | 0 mm | 2.68 m/s, 0° | - | - |
| 1787656543 | 32.78° C | 62% | 993.9 hPa | 0 mm | 0 m/s | - | - |
* Rain latest hour (hover to see other rain measurements)
** Current wind speed in m/s (hover to see current wind gust speed)